Location: Most
(50.5133°N, 13.6207°E)
Time: 02:07:20
(UTC+01:00)

Oscar 11 - Pass Details

Date: 08 December 2021
Orbit: 611 x 625 km, 97.6° (Epoch: 17 January)

Event Time Altitude Azimuth Distance (km) Brightness Sun altitude
Rises 07:01:48 0° 1° (N) 2,918 10.3 -7.8°
Reaches altitude 10° 07:04:32 10° 344° (NNW) 2,004 9.3 -7.4°
Maximum altitude 07:07:31 18° 300° (WNW) 1,518 8.4 -7.0°
Drops below altitude 10° 07:10:29 10° 257° (WSW) 1,988 9.2 -6.6°
Sets 07:13:12 0° 239° (WSW) 2,886 10.2 -6.2°
